STARLINK-31890, 59785

Orbit data source: Space-Track

STARLINK-31890, 59785 is a payload satellite owned by SpaceX/Seattle (US) in LEO that was launched on Sat, 18 May 2024 UTC via an FALCON 9 launch vehicle from the Air Force Eastern Test Range (AFETR). Payload-class satellites include a variety of spacecraft equipped with specific instruments for various scientific and technological missions. These include communications satellites like Starlink; space stations such as the ISS; scientific satellites like the Hubble; Earth observation satellites from companies like Planet Labs, Umbra, and HawkEye 360; GPS; miniature CubeSats for education and research; and military/defense satellites.

Loading next visibility...
Identifier
59785, 2024-093D
Orbit
LEO
Last TLE update
7 hours ago
Origin
Manufacturer
SpaceX/Seattle
Mission
Operational spacecraft
Bus & Motor
STARLINK V2M, Unknown motor
Mass
730 kg wet, ~700 kg dry
Launch date (UTC)
2024-05-18 (1 year ago)
Launch vehicle
FALCON 9
Launch site
Air Force Eastern Test Range (AFETR)
Object type
Payload
Rocket body
Debris
Shape & HBR
Unknown
Radar Cross Section
Large (>1 m²)

Expand to show TLE details & history

TLE from 7 hours ago
0 STARLINK-31890
1 59785U 24093D   25192.20806773  .00000428  00000-0  25063-4 0  9998
2 59785  43.0026 129.2197 0001053 262.6106  97.4626 15.27579438 65785
Epoch: 2025-07-11T04:59Z
TLE epoch observation values (Epoch: 2025-07-11T04:59:37.051Z)
Latitude
-0.00004°
Longitude
124.95198°
Altitude
482.92 km
Speed
7.626 km/s
True Right ascension
08h 36m 52s
True Declination
0° 00' 00"
Sunlit
Object was in daylight at epoch
Visualization orbit readout
Latitude
43.15313°
Longitude
-145.28271°
Altitude
486.918 km
Speed
7.627 km/s
Apparent Right ascension
13h 17m 59s
Apparent Declination
3° 41' 30"
Sunlit
Object is in daylight
Visualization observer readout
Local Sidereal Time
23:58:05
Azimuth
332.371° NNW
Elevation
-42.691°
Doppler factor
1
Orbital elements
Apogee altitude
485.718 km
Perigee altitude
484.273 km
Semi-major axis
6,863.133 km
Eccentricity
0.00011
Inclination
43.0026°
RAAN
129.2197°
Arg. of periapsis
262.6106°
True anomaly
Unknown
Mean anomaly
97.4626°
Eccentric anomaly
Unknown
Mean motion
3.81733 °/min
Orbital period
94.31 mins
BSTAR
0.000025063
Loading maneuver chart data...
Loading SW <> Apogee altitude chart data...
Loading historical data...
Loading historical data...
Loading historical data...
Loading historical data...
Loading historical data...
Loading historical data...
Loading historical data...

STARLINK-31890 Visibility forecast

Observer location: undefined°, undefined°

Span
Click to sort rows by Start time (UTC) header in descending order
Start Az.
Max El. time (UTC)
Max El. Az.
Max El.
End time (UTC)
End Az.
4 mins2025-07-11 22:27:01.067Z183.22° SSW2025-07-11 22:29:01.067Z142.457° SSE19.643°2025-07-11 22:31:01.067Z103.694° ESE
6 mins2025-07-12 00:05:01.067Z248.152° W2025-07-12 00:08:01.067Z80.443° E42.342°2025-07-12 00:11:01.067Z72.443° E
6 mins2025-07-12 01:44:01.067Z285.622° WNW2025-07-12 01:47:01.067Z21.349° NNE37.108°2025-07-12 01:50:01.067Z74.631° E
5 mins2025-07-12 03:24:01.067Z292.917° NW2025-07-12 03:26:01.067Z55.807° ENE43.997°2025-07-12 03:29:01.067Z102.534° ESE
4 mins2025-07-12 05:03:01.067Z252.212° W2025-07-12 05:05:01.067Z198.376° SSW24.842°2025-07-12 05:07:01.067Z159.055° S
|